ZBAA Airport Information

Runway Information
Runway 01 Length 12468 ft width 197 ft
Elevation 94 ft Threshold 0 ft Heading 353
Runway 19 Length 12468 ft Width 197 ft
Elevation 84 ft Threshold 0 ft Heading 173
Runway 18L Length 12468 ft width 197 ft
Elevation 110 ft Threshold 0 ft Heading 173
Runway 36R Length 12468 ft Width 197 ft
Elevation 99 ft Threshold 0 ft Heading 353
Runway 18R Length 10499 ft width 164 ft
Elevation 116 ft Threshold 0 ft Heading 173
Runway 36L Length 10499 ft Width 164 ft
Elevation 107 ft Threshold 0 ft Heading 353
Airport Frequencies
Type APP Name BEIJING AP Frequency 119.6 MHZ
Type APP Name BEIJING AP Frequency 119.7 MHZ
Type APP Name BEIJING AP Frequency 120.6 MHZ
Type APP Name BEIJING AP Frequency 121.1 MHZ
Type APP Name BEIJING AP Frequency 126.1 MHZ
Type APP Name BEIJING AP Frequency 127.75 MHZ
Type ATIS Name BEIJING AT Frequency 127.6 MHZ
Type CLD Name BEIJING DE Frequency 121.6 MHZ
Type GND Name GND EAST Frequency 121.7 MHZ
Type GND Name BEIJING GN Frequency 121.7 MHZ
Type GND Name GND WEST Frequency 121.9 MHZ
Type TWR Name BEIJING EA Frequency 118.5 MHZ
Type TWR Name BEIJING W Frequency 124.3 MHZ
Airport Navaids
Type VOR-DME Name Beijing Frequency 114700 KHZ
Type VOR-DME Name Shaziying Frequency 117200 KHZ
Airport Weather Information & NOTAM
ADDS - METARS form results

(2118 UTC 19 September 2020)
Data provider http://aviationweather.gov/metar/data/
 
METAR text: ZBAA 192100Z 36004MPS CAVOK 14/08 Q1018 NOSIG
Conditions at: ZBAA (BEIJING/PEKING , CN) observed 2100 UTC 19 September 2020
Temperature: 14.0°C (57°F)
Dewpoint: 8.0°C (46°F) [RH = 67%]
Pressure (altimeter): 30.06 inches Hg (1018.0 mb)
Winds: from the N (360 degrees) at 9 MPH (8 knots; 4.1 m/s)
Visibility: 6 or more miles (10+ km)
Ceiling: ceiling and visibility are OK
Clouds: unknown
Weather: no significant weather observed at this time

METAR text: ZBAA 192030Z 34003MPS CAVOK 13/08 Q1018 NOSIG
Conditions at: ZBAA (BEIJING/PEKING , CN) observed 2030 UTC 19 September 2020
Temperature: 13.0°C (55°F)
Dewpoint: 8.0°C (46°F) [RH = 72%]
Pressure (altimeter): 30.06 inches Hg (1018.0 mb)
Winds: from the NNW (340 degrees) at 7 MPH (6 knots; 3.1 m/s)
Visibility: 6 or more miles (10+ km)
Ceiling: ceiling and visibility are OK
Clouds: unknown
Weather: no significant weather observed at this time

Forecast for: ZBAA (BEIJING/PEKING , CN)
Text: TAF ZBAA 191502Z 1918/2018 02004MPS CAVOK TX29/2007Z TN11/1921Z
Forecast period: 1800 UTC 19 September 2020 to 1800 UTC 20 September 2020
Forecast type: FROM: standard forecast or significant change
Winds: from the NNE (20 degrees) at 9 MPH (8 knots; 4.1 m/s)
Visibility: 6 or more miles (10+ km)
Ceiling: unknown
Clouds: missing
Weather: no significant weather forecast for this period